Hourly Weather Northallerton

Today, 29 September, Tuesday

Time Temperature Precipitation Wind Pressure Humidity
00:00 +12°C° 0 mm 2 mps 756 mmHg 89%
01:00 +12°C° 0 mm 2 mps 756 mmHg 90%
02:00 +10°C° 0 mm 2 mps 756 mmHg 90%
03:00 +9°C° 0 mm 2 mps 756 mmHg 90%
04:00 +9°C° 0 mm 2 mps 757 mmHg 90%
05:00 +9°C° 0 mm 1 mps 757 mmHg 90%
06:00 +8°C° 0 mm 1 mps 757 mmHg 89%
07:00 +10°C° 0 mm 1 mps 757 mmHg 84%
08:00 +11°C° 0 mm 1 mps 757 mmHg 79%
09:00 +12°C° 0 mm 1 mps 757 mmHg 74%
10:00 +14°C° 0 mm 1 mps 757 mmHg 68%
11:00 +15°C° 0 mm 1 mps 757 mmHg 63%
12:00 +16°C° 0 mm 1 mps 757 mmHg 57%
13:00 +16°C° 0 mm 1 mps 757 mmHg 57%
14:00 +16°C° 0 mm 2 mps 757 mmHg 56%
15:00 +16°C° 0 mm 2 mps 756 mmHg 55%
16:00 +15°C° 0 mm 2 mps 756 mmHg 62%
17:00 +13°C° 0 mm 2 mps 756 mmHg 69%
18:00 +11°C° 0 mm 1 mps 756 mmHg 75%
19:00 +11°C° 0 mm 1 mps 756 mmHg 77%
20:00 +11°C° 0 mm 1 mps 755 mmHg 78%
21:00 +10°C° 0 mm 1 mps 755 mmHg 79%
22:00 +10°C° 0 mm 1 mps 755 mmHg 81%
23:00 +9°C° 0 mm 2 mps 754 mmHg 82%

Tomorrow, 30 September, Wednesday

Time Temperature Precipitation Wind Pressure Humidity
00:00 +9°C° 0 mm 2 mps 754 mmHg 84%
01:00 +9°C° 0 mm 2 mps 753 mmHg 85%
02:00 +9°C° 0 mm 2 mps 753 mmHg 86%
03:00 +9°C° 0 mm 3 mps 752 mmHg 87%
04:00 +9°C° 0 mm 3 mps 752 mmHg 87%
05:00 +9°C° 0 mm 3 mps 751 mmHg 86%
06:00 +9°C° 0 mm 3 mps 751 mmHg 86%
07:00 +10°C° 0 mm 4 mps 751 mmHg 82%
08:00 +10°C° 0 mm 5 mps 750 mmHg 78%
09:00 +11°C° 0 mm 6 mps 750 mmHg 74%
10:00 +11°C° 0 mm 6 mps 749 mmHg 73%
11:00 +13°C° 0 mm 6 mps 748 mmHg 72%
12:00 +13°C° 0 mm 6 mps 748 mmHg 71%
13:00 +13°C° 0 mm 6 mps 747 mmHg 74%
14:00 +13°C° 0 mm 6 mps 746 mmHg 76%
15:00 +13°C° 0 mm 6 mps 746 mmHg 79%
16:00 +11°C° 0.7 mm 6 mps 745 mmHg 83%
17:00 +11°C° 0.7 mm 6 mps 745 mmHg 88%
18:00 +10°C° 0.7 mm 6 mps 744 mmHg 93%
19:00 +10°C° 0.6 mm 6 mps 744 mmHg 93%
20:00 +10°C° 0.6 mm 6 mps 744 mmHg 93%
21:00 +11°C° 0.6 mm 6 mps 743 mmHg 93%
22:00 +10°C° 0.2 mm 5 mps 743 mmHg 94%
23:00 +11°C° 0.2 mm 4 mps 743 mmHg 94%

Day after tomorrow, 1 October, Thursday

Time Temperature Precipitation Wind Pressure Humidity
00:00 +11°C° 0.2 mm 3 mps 742 mmHg 95%
01:00 +10°C° 0 mm 3 mps 742 mmHg 94%
02:00 +10°C° 0 mm 3 mps 742 mmHg 93%
03:00 +9°C° 0 mm 3 mps 742 mmHg 92%
04:00 +9°C° 0 mm 2 mps 742 mmHg 92%
05:00 +9°C° 0 mm 2 mps 742 mmHg 92%
06:00 +8°C° 0 mm 2 mps 742 mmHg 92%
07:00 +9°C° 0 mm 2 mps 742 mmHg 88%
08:00 +10°C° 0 mm 3 mps 742 mmHg 84%
09:00 +10°C° 0 mm 3 mps 743 mmHg 80%
10:00 +11°C° 0 mm 3 mps 743 mmHg 77%
11:00 +11°C° 0 mm 3 mps 743 mmHg 75%
12:00 +11°C° 0 mm 3 mps 743 mmHg 72%
13:00 +12°C° 0.2 mm 3 mps 743 mmHg 72%
14:00 +12°C° 0.2 mm 3 mps 743 mmHg 72%
15:00 +12°C° 0.2 mm 3 mps 742 mmHg 72%
16:00 +10°C° 0.2 mm 3 mps 743 mmHg 76%
17:00 +9°C° 0.2 mm 2 mps 743 mmHg 80%
18:00 +9°C° 0.2 mm 1 mps 743 mmHg 84%
19:00 +9°C° 0 mm 1 mps 743 mmHg 84%
20:00 +8°C° 0 mm 1 mps 744 mmHg 85%
21:00 +8°C° 0 mm 1 mps 744 mmHg 85%
22:00 +7°C° 0 mm 1 mps 744 mmHg 85%
23:00 +7°C° 0 mm 1 mps 744 mmHg 85%

2 October, Friday

Time Temperature Precipitation Wind Pressure Humidity
00:00 +7°C° 0 mm 1 mps 744 mmHg 85%
01:00 +7°C° 0 mm 1 mps 744 mmHg 86%
02:00 +6°C° 0 mm 2 mps 744 mmHg 86%
03:00 +6°C° 0 mm 2 mps 745 mmHg 86%
04:00 +5°C° 0 mm 3 mps 745 mmHg 88%
05:00 +7°C° 0 mm 3 mps 745 mmHg 89%
06:00 +6°C° 0 mm 4 mps 746 mmHg 90%
07:00 +8°C° 0 mm 5 mps 746 mmHg 87%
08:00 +9°C° 0 mm 5 mps 746 mmHg 83%
09:00 +11°C° 0 mm 6 mps 746 mmHg 80%
10:00 +11°C° 0.1 mm 7 mps 747 mmHg 78%
11:00 +12°C° 0.1 mm 7 mps 747 mmHg 77%
12:00 +12°C° 0.1 mm 8 mps 747 mmHg 75%
13:00 +12°C° 0.1 mm 8 mps 747 mmHg 77%
14:00 +12°C° 0.1 mm 8 mps 747 mmHg 79%
15:00 +12°C° 0.1 mm 8 mps 747 mmHg 81%
16:00 +12°C° 0.1 mm 7 mps 748 mmHg 85%
17:00 +11°C° 0.1 mm 7 mps 748 mmHg 88%
18:00 +11°C° 0.1 mm 6 mps 748 mmHg 91%
19:00 +11°C° 0.1 mm 6 mps 748 mmHg 92%
20:00 +11°C° 0.1 mm 6 mps 748 mmHg 92%
21:00 +12°C° 0.1 mm 5 mps 748 mmHg 92%
22:00 +12°C° 0.1 mm 5 mps 748 mmHg 93%
23:00 +12°C° 0.1 mm 5 mps 748 mmHg 95%

3 October, Saturday

Time Temperature Precipitation Wind Pressure Humidity
00:00 +11°C° 0.1 mm 6 mps 748 mmHg 96%
01:00 +11°C° 0 mm 6 mps 748 mmHg 95%
02:00 +11°C° 0 mm 6 mps 748 mmHg 95%
03:00 +11°C° 0 mm 6 mps 747 mmHg 95%
04:00 +11°C° 0 mm 6 mps 747 mmHg 95%
05:00 +13°C° 0 mm 5 mps 747 mmHg 95%
06:00 +13°C° 0 mm 5 mps 747 mmHg 95%
07:00 +13°C° 0 mm 5 mps 747 mmHg 93%
08:00 +14°C° 0 mm 5 mps 747 mmHg 91%
09:00 +14°C° 0 mm 5 mps 746 mmHg 89%
10:00 +15°C° 0.1 mm 5 mps 746 mmHg 85%
11:00 +15°C° 0.1 mm 5 mps 745 mmHg 82%
12:00 +16°C° 0.1 mm 5 mps 745 mmHg 78%
13:00 +15°C° 0.1 mm 5 mps 744 mmHg 81%
14:00 +15°C° 0.1 mm 4 mps 744 mmHg 84%
15:00 +14°C° 0.1 mm 4 mps 743 mmHg 87%
16:00 +14°C° 0 mm 4 mps 743 mmHg 90%
17:00 +13°C° 0 mm 4 mps 742 mmHg 92%
18:00 +13°C° 0 mm 4 mps 742 mmHg 94%
19:00 +13°C° 1.1 mm 4 mps 741 mmHg 95%
20:00 +13°C° 1.1 mm 4 mps 741 mmHg 96%
21:00 +13°C° 1.1 mm 4 mps 740 mmHg 97%
22:00 +13°C° 1.5 mm 4 mps 739 mmHg 97%
23:00 +13°C° 1.5 mm 4 mps 739 mmHg 97%

4 October, Sunday

Time Temperature Precipitation Wind Pressure Humidity
00:00 +13°C° 1.5 mm 3 mps 738 mmHg 98%
01:00 +12°C° 1.1 mm 3 mps 737 mmHg 97%
02:00 +12°C° 1.1 mm 4 mps 737 mmHg 96%
03:00 +11°C° 1.1 mm 4 mps 736 mmHg 95%
04:00 +11°C° 0.2 mm 4 mps 736 mmHg 94%
05:00 +11°C° 0.2 mm 4 mps 736 mmHg 93%
06:00 +10°C° 0.2 mm 4 mps 736 mmHg 93%
07:00 +10°C° 0 mm 4 mps 736 mmHg 91%
08:00 +10°C° 0 mm 4 mps 736 mmHg 89%
09:00 +11°C° 0 mm 4 mps 736 mmHg 87%
10:00 +12°C° 0 mm 4 mps 736 mmHg 82%
11:00 +13°C° 0 mm 3 mps 736 mmHg 77%
12:00 +14°C° 0 mm 3 mps 736 mmHg 72%
13:00 +14°C° 0.3 mm 4 mps 736 mmHg 73%
14:00 +14°C° 0.3 mm 4 mps 736 mmHg 74%
15:00 +14°C° 0.3 mm 4 mps 737 mmHg 76%
16:00 +13°C° 0.2 mm 4 mps 737 mmHg 81%
17:00 +12°C° 0.2 mm 3 mps 737 mmHg 86%
18:00 +11°C° 0.2 mm 3 mps 738 mmHg 92%
19:00 +10°C° 0 mm 3 mps 738 mmHg 93%
20:00 +10°C° 0 mm 3 mps 738 mmHg 94%
21:00 +10°C° 0 mm 3 mps 739 mmHg 95%
22:00 +9°C° 0 mm 3 mps 739 mmHg 95%
23:00 +9°C° 0 mm 3 mps 739 mmHg 95%
Show more